Date String (YYYY-MM-DD hh:mm:ss) UTC,Instrument flags,Ambient pressure (hPa),Sample flow (lpm),Bypass flow (lpm),Sample temperature (°C),Ambient temperature (°C),ASC tube jacket temperature (°C),LED temperature (°C),Box temperature (°C),Sample RH (%),Span deviation,Mass concentration (μg/m³),Mass concentration (μg/m³),Mass concentration (μg/m³)
DateTimeUTC,F1_M11,P_M11,Q1_M11,Q2_M11,T1_M11,T2_M11,T3_M11,T4_M11,T5_M11,U1_M11,ZSPAN_M11,X0_M11,X2_M11,X1_M11
2022-03-23 16:00:00,,0827.0,4.99,0.00,21.5,21.0,00.0,30.7,23.2,04.7,0000.0,0004.34,0001.24,0000.52
2022-03-23 16:01:00,,0827.0,5.01,0.00,21.5,20.9,00.0,30.7,23.2,04.9,0000.0,0004.46,0001.24,0000.51
2022-03-23 16:02:00,,0827.0,5.00,0.00,21.5,20.9,00.0,30.7,23.1,05.0,0000.0,0004.40,0001.22,0000.50
2022-03-23 16:03:00,,0827.1,4.99,0.00,21.5,20.9,00.0,30.6,23.1,05.1,0000.0,0003.83,0001.18,0000.50
2022-03-23 16:04:00,,0827.1,4.99,0.00,21.5,20.9,00.0,30.6,23.1,05.4,0000.0,0004.27,0001.21,0000.51
2022-03-23 16:05:00,,0827.0,5.01,0.00,21.5,20.8,00.0,30.6,23.1,05.3,0000.0,0005.05,0001.09,0000.51
2022-03-23 16:06:00,,0827.1,4.99,0.00,21.5,20.8,00.0,30.6,23.1,05.1,0000.0,0004.54,0001.04,0000.51
2022-03-23 16:07:00,,0827.0,5.00,0.00,21.4,20.8,00.0,30.6,23.0,05.0,0000.0,0004.35,0000.99,0000.52
2022-03-23 16:08:00,,0827.0,5.00,0.00,21.4,20.8,00.0,30.6,23.0,05.0,0000.0,0004.32,0001.01,0000.53
2022-03-23 16:09:00,,0827.0,5.00,0.00,21.4,20.8,00.0,30.6,23.0,05.0,0000.0,0005.03,0001.05,0000.54
2022-03-23 16:10:00,,0827.1,5.00,0.00,21.4,20.8,00.0,30.5,22.9,05.1,0000.0,0005.10,0001.05,0000.53
2022-03-23 16:11:00,,0827.4,5.01,0.00,21.4,20.8,00.0,30.5,22.9,05.2,0000.0,0005.02,0001.05,0000.55
2022-03-23 16:12:00,,0827.2,4.98,0.00,21.4,20.7,00.0,30.5,22.9,05.3,0000.0,0004.86,0001.04,0000.56
2022-03-23 16:13:00,,0827.2,5.01,0.00,21.3,20.7,00.0,30.5,22.9,05.4,0000.0,0004.59,0001.01,0000.56
2022-03-23 16:14:00,,0827.0,5.01,0.00,21.4,20.9,00.0,30.5,23.0,05.2,0000.0,0004.66,0001.02,0000.56
2022-03-23 16:15:00,,0827.2,5.01,0.00,21.5,22.1,00.0,30.5,23.3,05.2,0000.0,0004.60,0001.03,0000.56
2022-03-23 16:16:00,,0827.1,5.00,0.00,21.7,23.0,00.0,30.6,23.7,05.2,0000.0,0003.31,0001.03,0000.56
2022-03-23 16:17:00,,0827.0,4.99,0.00,21.8,22.9,00.0,30.6,23.7,05.2,0000.0,0004.97,0001.06,0000.57
2022-03-23 16:18:00,,0827.0,5.00,0.00,21.8,22.5,00.0,30.6,23.6,05.0,0000.0,0005.23,0001.05,0000.56
2022-03-23 16:19:00,,0827.1,5.00,0.00,21.8,22.2,00.0,30.6,23.5,05.0,0000.0,0005.38,0001.07,0000.56
2022-03-23 16:20:00,,0827.3,4.99,0.00,21.7,21.9,00.0,30.7,23.4,05.0,0000.0,0004.99,0001.07,0000.56
2022-03-23 16:21:00,,0827.2,5.01,0.00,21.7,21.8,00.0,30.7,23.4,05.0,0000.0,0004.55,0001.03,0000.55
2022-03-23 16:22:00,,0827.2,4.99,0.00,21.7,21.6,00.0,30.7,23.4,05.0,0000.0,0004.51,0001.02,0000.55
2022-03-23 16:23:00,,0827.2,5.01,0.00,21.7,21.5,00.0,30.7,23.4,05.0,0000.0,0004.40,0000.98,0000.55
2022-03-23 16:24:00,,0827.1,5.00,0.00,21.7,21.4,00.0,30.7,23.4,05.4,0000.0,0005.01,0001.04,0000.55
2022-03-23 16:25:00,,0827.2,4.99,0.00,21.7,21.3,00.0,30.7,23.4,05.5,0000.0,0007.29,0001.09,0000.55
2022-03-23 16:26:00,,0827.1,5.01,0.00,21.7,21.3,00.0,30.7,23.4,05.5,0000.0,0007.31,0001.08,0000.56
2022-03-23 16:27:00,,0826.9,5.01,0.00,21.7,21.2,00.0,30.7,23.4,05.6,0000.0,0007.54,0001.12,0000.56
2022-03-23 16:28:00,,0827.0,4.99,0.00,21.7,21.2,00.0,30.7,23.4,05.0,0000.0,0006.31,0001.11,0000.56
2022-03-23 16:29:00,,0827.0,5.00,0.00,21.7,21.1,00.0,30.7,23.4,04.7,0000.0,0006.18,0001.15,0000.56
2022-03-23 16:30:00,,0827.3,5.01,0.00,21.7,21.1,00.0,30.7,23.4,05.0,0000.0,0006.20,0001.17,0000.57
2022-03-23 16:31:00,,0827.3,4.98,0.00,21.7,21.1,00.0,30.7,23.3,05.1,0000.0,0006.20,0001.16,0000.57
2022-03-23 16:32:00,,0827.4,5.00,0.00,21.7,21.1,00.0,30.7,23.3,05.4,0000.0,0006.37,0001.19,0000.58
2022-03-23 16:33:00,,0827.3,5.00,0.00,21.7,21.1,00.0,30.7,23.3,05.5,0000.0,0006.58,0001.22,0000.58
2022-03-23 16:34:00,,0827.4,5.01,0.00,21.7,21.1,00.0,30.7,23.3,05.1,0000.0,0006.68,0001.24,0000.57
2022-03-23 16:35:00,,0826.9,5.00,0.00,21.7,21.1,00.0,30.7,23.4,05.1,0000.0,0006.04,0001.18,0000.57
2022-03-23 16:36:00,,0827.0,5.00,0.00,21.7,21.0,00.0,30.7,23.4,05.2,0000.0,0004.42,0001.17,0000.57
2022-03-23 16:37:00,,0827.0,4.99,0.00,21.7,21.0,00.0,30.7,23.4,05.2,0000.0,0005.10,0001.15,0000.55
2022-03-23 16:38:00,,0827.0,5.01,0.00,21.7,21.0,00.0,30.7,23.3,05.4,0000.0,0005.10,0001.10,0000.55
2022-03-23 16:39:00,,0827.2,4.98,0.00,21.7,21.0,00.0,30.7,23.3,05.2,0000.0,0005.41,0001.11,0000.54
2022-03-23 16:40:00,,0827.2,5.01,0.00,21.7,21.0,00.0,30.7,23.3,05.4,0000.0,0005.39,0001.10,0000.54
2022-03-23 16:41:00,,0827.4,5.00,0.00,21.7,21.0,00.0,30.7,23.3,05.5,0000.0,0005.40,0001.13,0000.54
2022-03-23 16:42:00,,0827.1,5.01,0.00,21.7,21.0,00.0,30.7,23.3,05.6,0000.0,0005.44,0001.17,0000.55
2022-03-23 16:43:00,,0827.1,5.00,0.00,21.7,21.0,00.0,30.7,23.3,05.5,0000.0,0005.52,0001.16,0000.54
2022-03-23 16:44:00,,0827.0,4.99,0.00,21.7,21.0,00.0,30.7,23.3,05.7,0000.0,0006.37,0001.14,0000.54
2022-03-23 16:45:00,,0827.2,4.99,0.00,21.6,21.0,00.0,30.7,23.2,05.5,0000.0,0006.29,0001.12,0000.55
2022-03-23 16:46:00,,0827.3,5.01,0.00,21.6,21.0,00.0,30.7,23.2,05.4,0000.0,0006.51,0001.14,0000.55
2022-03-23 16:47:00,,0827.2,5.00,0.00,21.6,21.0,00.0,30.7,23.2,05.5,0000.0,0006.87,0001.13,0000.56
2022-03-23 16:48:00,,0827.1,5.01,0.00,21.6,21.0,00.0,30.7,23.2,05.5,0000.0,0006.15,0001.16,0000.58
2022-03-23 16:49:00,,0827.1,5.00,0.00,21.6,21.0,00.0,30.6,23.2,05.7,0000.0,0005.41,0001.17,0000.58
2022-03-23 16:50:00,,0827.2,5.01,0.00,21.6,21.0,00.0,30.6,23.2,05.7,0000.0,0007.47,0001.55,0000.62
2022-03-23 16:51:00,,0827.0,5.00,0.00,21.6,20.9,00.0,30.6,23.2,05.6,0000.0,0007.83,0001.62,0000.63
2022-03-23 16:52:00,,0827.1,4.99,0.00,21.6,21.0,00.0,30.6,23.2,05.3,0000.0,0007.89,0001.64,0000.63
2022-03-23 16:53:00,,0827.2,5.02,0.00,21.6,21.0,00.0,30.6,23.2,05.3,0000.0,0007.90,0001.64,0000.63
2022-03-23 16:54:00,,0827.1,4.98,0.00,21.6,21.0,00.0,30.6,23.2,05.4,0000.0,0007.80,0001.63,0000.63
2022-03-23 16:55:00,,0827.2,5.00,0.00,21.6,21.0,00.0,30.6,23.2,05.2,0000.0,0007.15,0001.65,0000.64
2022-03-23 16:56:00,,0827.3,5.00,0.00,21.5,20.9,00.0,30.6,23.2,05.4,0000.0,0007.31,0001.68,0000.64
2022-03-23 16:57:00,,0827.2,5.00,0.00,21.5,20.8,00.0,30.6,23.1,05.7,0000.0,0007.04,0001.68,0000.64
2022-03-23 16:58:00,,0827.3,5.01,0.00,21.5,20.7,00.0,30.6,23.1,05.7,0000.0,0006.02,0001.63,0000.64
2022-03-23 16:59:00,,0827.2,4.98,0.00,21.5,20.8,00.0,30.6,23.1,06.0,0000.0,0005.99,0001.61,0000.64
